Year,Month,Day,Hour,Minute,Value (Times are PST for temperature in C)
2021,01,24,00,00,2.70
2021,01,24,00,01,2.70
2021,01,24,00,02,2.70
2021,01,24,00,03,2.70
2021,01,24,00,04,2.70
2021,01,24,00,05,2.70
2021,01,24,00,06,2.70
2021,01,24,00,07,2.70
2021,01,24,00,08,2.70
2021,01,24,00,09,2.70
2021,01,24,00,10,2.70
2021,01,24,00,11,2.70
2021,01,24,00,12,2.70
2021,01,24,00,13,2.70
2021,01,24,00,14,2.70
2021,01,24,00,15,2.70
2021,01,24,00,16,2.60
2021,01,24,00,17,2.60
2021,01,24,00,18,2.60
2021,01,24,00,19,2.60
2021,01,24,00,20,2.60
2021,01,24,00,21,2.60
2021,01,24,00,22,2.60
2021,01,24,00,23,2.60
2021,01,24,00,24,2.60
2021,01,24,00,25,2.60
2021,01,24,00,26,2.60
2021,01,24,00,27,2.60
2021,01,24,00,28,2.60
2021,01,24,00,29,2.60
2021,01,24,00,30,2.60
2021,01,24,00,31,2.60
2021,01,24,00,32,2.60
2021,01,24,00,33,2.70
2021,01,24,00,34,2.70
2021,01,24,00,35,2.70
2021,01,24,00,36,2.60
2021,01,24,00,37,2.60
2021,01,24,00,38,2.60
2021,01,24,00,39,2.60
2021,01,24,00,40,2.60
2021,01,24,00,41,2.60
2021,01,24,00,42,2.60
2021,01,24,00,43,2.60
2021,01,24,00,44,2.60
2021,01,24,00,45,2.60
2021,01,24,00,46,2.60
2021,01,24,00,47,2.60
2021,01,24,00,48,2.60
2021,01,24,00,49,2.60
2021,01,24,00,50,2.60
2021,01,24,00,51,2.60
2021,01,24,00,52,2.60
2021,01,24,00,53,2.60
2021,01,24,00,54,2.50
2021,01,24,00,55,2.50
2021,01,24,00,56,2.50
2021,01,24,00,57,2.50
2021,01,24,00,58,2.50
2021,01,24,00,59,2.50
2021,01,24,01,00,2.50
2021,01,24,01,01,2.50
2021,01,24,01,02,2.40
2021,01,24,01,03,2.40
2021,01,24,01,04,2.40
2021,01,24,01,05,2.40
2021,01,24,01,06,2.50
2021,01,24,01,07,2.50
2021,01,24,01,08,2.40
2021,01,24,01,09,2.40
2021,01,24,01,10,2.40
2021,01,24,01,11,2.40
2021,01,24,01,12,2.40
2021,01,24,01,13,2.40
2021,01,24,01,14,2.40
2021,01,24,01,15,2.40
2021,01,24,01,16,2.40
2021,01,24,01,17,2.40
2021,01,24,01,18,2.40
2021,01,24,01,19,2.40
2021,01,24,01,20,2.40
2021,01,24,01,21,2.40
2021,01,24,01,22,2.40
2021,01,24,01,23,2.40
2021,01,24,01,24,2.40
2021,01,24,01,25,2.40
2021,01,24,01,26,2.40
2021,01,24,01,27,2.40
2021,01,24,01,28,2.40
2021,01,24,01,29,2.30
2021,01,24,01,30,2.30
2021,01,24,01,31,2.30
2021,01,24,01,32,2.30
2021,01,24,01,33,2.30
2021,01,24,01,34,2.30
2021,01,24,01,35,2.30
2021,01,24,01,36,2.30
2021,01,24,01,37,2.30
2021,01,24,01,38,2.30
2021,01,24,01,39,2.30
2021,01,24,01,40,2.30
2021,01,24,01,41,2.30
2021,01,24,01,42,2.30
2021,01,24,01,43,2.30
2021,01,24,01,44,2.20
2021,01,24,01,45,2.20
2021,01,24,01,46,2.20
2021,01,24,01,47,2.20
2021,01,24,01,48,2.20
2021,01,24,01,49,2.20
2021,01,24,01,50,2.10
2021,01,24,01,51,2.10
2021,01,24,01,52,2.10
2021,01,24,01,53,2.10
2021,01,24,01,54,2.10
2021,01,24,01,55,2.10
2021,01,24,01,56,2.00
2021,01,24,01,57,2.00
2021,01,24,01,58,2.00
2021,01,24,01,59,2.00
2021,01,24,02,00,2.00
2021,01,24,02,01,2.00
2021,01,24,02,02,1.90
2021,01,24,02,03,1.90
2021,01,24,02,04,1.90
2021,01,24,02,05,1.90
2021,01,24,02,06,1.90
2021,01,24,02,07,1.90
2021,01,24,02,08,1.90
2021,01,24,02,09,1.90
2021,01,24,02,10,1.80
2021,01,24,02,11,1.80
2021,01,24,02,12,1.80
2021,01,24,02,13,1.80
2021,01,24,02,14,1.80
2021,01,24,02,15,1.80
2021,01,24,02,16,1.80
2021,01,24,02,17,1.80
2021,01,24,02,18,1.80
2021,01,24,02,19,1.80
2021,01,24,02,20,1.80
2021,01,24,02,21,1.80
2021,01,24,02,22,1.80
2021,01,24,02,23,1.80
2021,01,24,02,24,1.80
2021,01,24,02,25,1.70
2021,01,24,02,26,1.70
2021,01,24,02,27,1.70
2021,01,24,02,28,1.70
2021,01,24,02,29,1.70
2021,01,24,02,30,1.70
2021,01,24,02,31,1.70
2021,01,24,02,32,1.70
2021,01,24,02,33,1.70
2021,01,24,02,34,1.70
2021,01,24,02,35,1.70
2021,01,24,02,36,1.70
2021,01,24,02,37,1.70
2021,01,24,02,38,1.70
2021,01,24,02,39,1.70
2021,01,24,02,40,1.70
2021,01,24,02,41,1.70
2021,01,24,02,42,1.70
2021,01,24,02,43,1.70
2021,01,24,02,44,1.70
2021,01,24,02,45,1.80
2021,01,24,02,46,1.80
2021,01,24,02,47,1.80
2021,01,24,02,48,1.80
2021,01,24,02,49,1.80
2021,01,24,02,50,1.80
2021,01,24,02,51,1.80
2021,01,24,02,52,1.80
2021,01,24,02,53,1.80
2021,01,24,02,54,1.70
2021,01,24,02,55,1.70
2021,01,24,02,56,1.70
2021,01,24,02,57,1.70
2021,01,24,02,58,1.70
2021,01,24,02,59,1.70
2021,01,24,03,00,1.70
2021,01,24,03,01,1.70
2021,01,24,03,02,1.70
2021,01,24,03,03,1.70
2021,01,24,03,04,1.70
2021,01,24,03,05,1.70
2021,01,24,03,06,1.70
2021,01,24,03,07,1.70
2021,01,24,03,08,1.70
2021,01,24,03,09,1.70
2021,01,24,03,10,1.70
2021,01,24,03,11,1.70
2021,01,24,03,12,1.70
2021,01,24,03,13,1.70
2021,01,24,03,14,1.70
2021,01,24,03,15,1.70
2021,01,24,03,16,1.60
2021,01,24,03,17,1.60
2021,01,24,03,18,1.60
2021,01,24,03,19,1.60
2021,01,24,03,20,1.60
2021,01,24,03,21,1.60
2021,01,24,03,22,1.60
2021,01,24,03,23,1.60
2021,01,24,03,24,1.50
2021,01,24,03,25,1.50
2021,01,24,03,26,1.50
2021,01,24,03,27,1.50
2021,01,24,03,28,1.50
2021,01,24,03,29,1.50
2021,01,24,03,30,1.50
2021,01,24,03,31,1.40
2021,01,24,03,32,1.40
2021,01,24,03,33,1.40
2021,01,24,03,34,1.40
2021,01,24,03,35,1.40
2021,01,24,03,36,1.40
2021,01,24,03,37,1.40
2021,01,24,03,38,1.40
2021,01,24,03,39,1.30
2021,01,24,03,40,1.30
2021,01,24,03,41,1.30
2021,01,24,03,42,1.30
2021,01,24,03,43,1.30
2021,01,24,03,44,1.30
2021,01,24,03,45,1.30
2021,01,24,03,46,1.30
2021,01,24,03,47,1.30
2021,01,24,03,48,1.30
2021,01,24,03,49,1.30
2021,01,24,03,50,1.30
2021,01,24,03,51,1.30
2021,01,24,03,52,1.30
2021,01,24,03,53,1.30
2021,01,24,03,54,1.30
2021,01,24,03,55,1.30
2021,01,24,03,56,1.30
2021,01,24,03,57,1.30
2021,01,24,03,58,1.30
2021,01,24,03,59,1.30
2021,01,24,04,00,1.30
2021,01,24,04,01,1.30
2021,01,24,04,02,1.30
2021,01,24,04,03,1.30
2021,01,24,04,04,1.30
2021,01,24,04,05,1.30
2021,01,24,04,06,1.30
2021,01,24,04,07,1.30
2021,01,24,04,08,1.30
2021,01,24,04,09,1.30
2021,01,24,04,10,1.30
